Regional Weather Roundup
Issued by NWS

Home | Current Version | Previous Version | Graphics & Text | Print | Product List | Glossary On
Versions: 1 2 3 4 5 6 7 8 9 10 11 12 13 14 15 16 17 18 19 20 21 22 23 24 25 26 27 28 29 30 31 32 33 34 35 36 37 38 39 40 41 42 43 44 45 46 47 48 49 50
000
ASUS43 KMPX 281601
RWRMN
WEATHER ROUNDUP FOR MINNESOTA
NATIONAL WEATHER SERVICE TWIN CITIES/CHANHASSEN MN
1100 AM CDT TUE MAR 28 2017


NOTE: "FAIR" INDICATES FEW OR NO CLOUDS BELOW 12,000 FEET WITH NO
SIGNIFICANT WEATHER AND/OR OBSTRUCTIONS TO VISIBILITY. N/A MEANS
CURRENT SKY AND/OR WEATHER CONDITIONS ARE NOT AVAILABLE.

MNZ060>063-068>070-281700-
   Twin Cities Metro

CITY           SKY/WX    TMP DP  RH WIND       PRES   REMARKS
TWIN CITIES    MOSUNNY   52  37  56 CALM      30.15R
ST PAUL        SUNNY     50  39  66 MISG      30.16S
CRYSTAL        SUNNY     52  34  50 N6        30.14S
BLAINE         MOSUNNY   54  37  54 VRB3      30.15R
LAKEVILLE      SUNNY     50  37  62 CALM      30.15R
EDEN PRAIRIE   SUNNY     54  37  52 E6        30.14R
SOUTH ST PAUL  SUNNY     50  39  65 CALM      30.15R
LAKE ELMO      FAIR      48  39  71 CALM      30.16S
$$
MNZ001>005-007-008-013>017-022>024-027-028-281700-
   Northwest Minnesota

CITY           SKY/WX    TMP DP  RH WIND       PRES   REMARKS
BEMIDJI        PTSUNNY   46  29  52 NW6       30.16R
HALLOCK        CLOUDY    37  34  87 NW8       30.21S
ROSEAU         SUNNY     43  34  70 E3        30.21R
WARROAD        SUNNY     37  30  75 NE6       30.22R
THIEF RVR FALL SUNNY     45  35  68 E8        30.18S
CROOKSTON      SUNNY     43  37  81 NE5       30.18S
FOSSTON        SUNNY     46  37  71 NE5       30.16S
DETROIT LAKES  SUNNY     46  36  66 N3        30.16S
MOORHEAD       FOG       34  34 100 CALM      30.18S VSB 1/4
PARK RAPIDS    SUNNY     52  30  43 CALM      30.14R
MAHNOMEN       FAIR      45  36  71 CALM      30.15S
$$
MNZ006-009>011-018-025>026-281700-
   North Central Minnesota

CITY           SKY/WX    TMP DP  RH WIND       PRES   REMARKS
BAUDETTE       SUNNY     47  30  51 VRB5      30.19R
FLAG ISLAND    SUNNY     36  27  69 N6        30.22R
INTL FALLS     SUNNY     46  30  53 N3        30.18R
WASKISH        MOSUNNY   48  36  61 W3        30.17R
BIG FORK       SUNNY     50  30  46 N3        30.14S
LONGVILLE      PTSUNNY   48  30  49 CALM      30.15R
GRAND RAPIDS   MOSUNNY   48  31  51 CALM      30.16S
CRANE LAKE     SUNNY     45  28  53 NW5       30.18R
ORR            SUNNY     48  27  43 CALM      30.13R
COOK           SUNNY     46  28  49 CALM      30.15S
WALKER         PTSUNNY   44  31  60 CALM      30.15R
$$
MNZ012-019>021-037-281700-
   Northeast Minnesota

CITY           SKY/WX    TMP DP  RH WIND       PRES   REMARKS
DULUTH         MOSUNNY   51  32  48 S3        30.14R
ELY            SUNNY     45  28  53 CALM      30.14S
HIBBING        SUNNY     48  32  53 CALM      30.14R
EVELETH        SUNNY     47  29  49 CALM      30.15S
DULUTH HARBOR  SUNNY     39  34  81 CALM      30.17R
TWO HARBORS    SUNNY     54  37  54 SW5       30.13S
SILVER BAY     MOSUNNY   52  34  50 SE5       30.12S
GRAND MARAIS     N/A     38  34  85 SW3       30.16R
G MARAIS ARPRT SUNNY     48  21  34 CALM      30.13R
$$
MNZ029>031-032-039>041-046>048-054>057-064-281700-
   West Central Minnesota

CITY           SKY/WX    TMP DP  RH WIND       PRES   REMARKS
FERGUS FALLS   SUNNY     46  37  71 NW3       30.18S
WHEATON        CLOUDY    36  36 100 CALM      30.19R FOG
MORRIS         MOSUNNY   50  37  62 NW5       30.14S
ALEXANDRIA     SUNNY     53  36  52 CALM      30.15S
ELBOW LAKE     FAIR      47  38  73 SW3       30.16S
WADENA         SUNNY     48  37  66 CALM      30.14R
GLENWOOD       SUNNY     54  37  54 CALM      30.15S
APPLETON       PTSUNNY   52  37  58 CALM      30.15S
BENSON         MOSUNNY   57  32  38 NE3       30.17R
ORTONVILLE     CLOUDY    43  36  75 NW5       30.16R
MADISON        CLOUDY    52  39  62 CALM      30.16R
WILLMAR        FAIR      55  37  50 NE3       30.16R
$$
MNZ033>034-036-042>043-049>051-058-059-281700-
   Central Minnesota

CITY           SKY/WX    TMP DP  RH WIND       PRES   REMARKS
ST CLOUD       SUNNY     53  38  56 NW3       30.15R
SAUK CENTRE    FAIR      52  37  56 CALM      30.16S
PAYNESVILLE      N/A     55  34  44 CALM      30.16R
AITKIN         SUNNY     54  32  43 CALM      30.13S
PINE RIVER     SUNNY     52  36  54 CALM      30.17R
BRAINERD       SUNNY     51  35  54 SW7       30.15R
STAPLES        SUNNY     50  36  57 CALM      30.14S
LONG PRAIRIE   FAIR      52  36  54 CALM      30.16R
LITTLE FALLS   SUNNY     52  34  50 CALM      30.16R
LITCHFIELD     SUNNY     54  37  54 CALM      30.16R
BUFFALO        SUNNY     51  36  57 NE5       30.16S
MAPLE LAKE     SUNNY     53  38  57 NE3       30.16R
HUTCHINSON     CLOUDY    53  40  61 NE3       30.16R
$$
MNZ037-044-045-052-053-281700-
   East Central Minnesota

CITY           SKY/WX    TMP DP  RH WIND       PRES   REMARKS
PRINCETON      SUNNY     54  36  50 N3        30.16R
MORA           SUNNY     50  34  53 CALM      30.17S
CAMBRIDGE      SUNNY     52  37  58 N3        30.14S
RUSH CITY      SUNNY     49  35  57 N3        30.15F
MOOSE LAKE     SUNNY     52  30  43 CALM      30.14S
CLOQUET        SUNNY     52  28  40 CALM      30.14S
MCGREGOR       MOSUNNY   52  36  54 CALM      30.15S
$$
MNZ071>073-080-081-089-090-097-098-281700-
   Southwest Minnesota

CITY           SKY/WX    TMP DP  RH WIND       PRES   REMARKS
MONTEVIDEO     MOSUNNY   55  39  54 SE3       30.16S
GRANITE FALLS  SUNNY     56  40  54 E3        30.16S
CANBY          PTSUNNY   51  39  63 CALM      30.17R
MARSHALL       SUNNY     51  39  63 VRB3      30.15R
REDWOOD FALLS  SUNNY     54  38  54 VRB5      30.14R
OLIVIA         SUNNY     54  36  50 NE3       30.14R
PIPESTONE      MOSUNNY   54  36  50 CALM      30.13R
WINDOM         SUNNY     52  39  62 NE5       30.14R
WORTHINGTON    SUNNY     49  40  71 E7        30.14R
JACKSON        SUNNY     50  36  57 SE3       30.13R
TRACY          SUNNY     53  40  63 E5        30.14R
SLAYTON        SUNNY     50  40  67 E5        30.14R
$$
MNZ065>067-074>077-082>085-091>093-281700-
   South Central Minnesota

CITY           SKY/WX    TMP DP  RH WIND       PRES   REMARKS
MANKATO        SUNNY     51  39  63 CALM      30.15R
NEW ULM        SUNNY     52  37  58 CALM      30.15R
ST JAMES       SUNNY     52  39  62 CALM      30.15S
FAIRMONT       SUNNY     49  39  68 E3        30.14R
GLENCOE        SUNNY     52  41  66 NE3       30.14S
FARIBAULT      SUNNY     52  39  62 CALM      30.15S
OWATONNA       SUNNY     52  37  58 NE3       30.14S
WASECA         SUNNY     52  41  66 E6        30.16S
ALBERT LEA     SUNNY     46  37  71 E5        30.14R
$$
MNZ078>079-086>088-094>096-281700-
   Southeast Minnesota

CITY           SKY/WX    TMP DP  RH WIND       PRES   REMARKS
ROCHESTER      SUNNY    N/A N/A N/A E6        30.14S
RED WING       SUNNY     43  43 100 S3        30.15S
STANTON        SUNNY     51  39  63 CALM      30.14R
DODGE CENTER   SUNNY     43  43 100 NE6       30.14S
WINONA         CLOUDY    37  37 100 CALM      30.18S
AUSTIN         SUNNY     48  37  66 E6        30.14R
PRESTON        SUNNY     46  36  69 E8        30.14F
$$
ABBREVIATIONS USED IN REMARKS
   TC - TEMPERATURES IN CELSIUS
  WCI - WIND CHILL INDEX
   HX - HEAT INDEX
  VSB - VISIBILITY
$$




USA.gov is the U.S. government's official web portal to all federal, state and local government web resources and services.